Temp
3 3 1 0 1 1 0 1 1 1 2 2 1 1 1 1 1 1 1 1 1 1 1 1 1 -1 -2
1 1 0 -1 -0 -0 -0 -1 -0 -0 -0 0 0 0 0 1 0 0 0 1 1 1 1 1 1 1 0
1 -0 0 -1 -2 -2 -2 -2 -2 -1 -1 -1 -1 -0 -0 -0 -0 -0 -0 0 0 0 0 0 0 0 -0
-0 -0 -2 -2 -3 -3 -3 -3 -2 -2 -2 -2 -2 -1 -1 -1 -1 -1 -1 -1 -1 -1 -1 -1 -1 -1 -1
-1 -1 -3 -3 -3 -3 -3 -3 -3 -3 -3 -2 -2 -2 -2 -2 -2 -2 -1 -2 -2 -2 -2 -2 -2 -2 -3
-1 -1 -1 -2 -3 -3 -3 -4 -5 -4 -3 -3 -3 -3 -3 -3 -3 -3 -3 -4 -3 -3 -4 -4 -4 -4 -4
-2 -2 -1 -2 -2 -3 -4 -4 -3 -3 -4 -4 -5 -5 -4 -4 -4 -4 -5 -5 -5 -5 -5 -5 -5 -6 -7
-5 -4 -4 -4 -4 -4 -5 -5 -6 -6 -6 -6 -5 -5 -5 -5 -5 -6 -5 -6 -6 -6 -6 -6 -6 -7 -8
-6 -6 -5 -5 -6 -6 -7 -7 -6 -6 -6 -7 -7 -6 -6 -6 -6 -6 -6 -7 -7 -7 -7 -8 -9 -9 -9
-7 -7 -7 -7 -7 -7 -7 -7 -7 -8 -7 -8 -8 -8 -9 -7 -7 -7 -7 -7 -7 -8 -9 -9 -9 -9 -9
-9 -9 -9 -9 -9 -9 -9 -9 -9 -9 -9 -9 -9 -9 -10 -10 -9 -9 -9 -9 -9 -9 -9 -9 -10 -9 -9
-10 -10 -10 -10 -9 -9 -9 -9 -10 -10 -10 -10 -10 -10 -11 -11 -12 -11 -10 -10 -10 -10 -11 -11 -11 -11 -11
-11 -11 -11 -11 -11 -11 -11 -11 -11 -11 -11 -11 -11 -11 -12 -12 -12 -12 -12 -11 -11 -11 -11 -12 -12 -12 -12
-12 -12 -12 -11 -12 -11 -11 -12 -12 -12 -12 -12 -12 -12 -12 -12 -12 -12 -12 -12 -12 -12 -12 -12 -12 -12 -12
-13 -13 -13 -13 -12 -12 -12 -12 -12 -12 -12 -12 -12 -13 -12 -13 -13 -13 -13 -12 -12 -12 -12 -13 -12 -12 -12
-14 -14 -14 -14 -14 -14 -14 -14 -13 -13 -13 -13 -13 -14 -14 -13 -14 -13 -13 -13 -13 -13 -13 -13 -13 -13 -13
-15 -15 -14 -15 -15 -15 -15 -15 -15 -15 -15 -15 -15 -15 -15 -15 -14 -14 -14 -14 -14 -14 -13 -13 -13 -14 -14
Height
1510 1516 1522 1527 1532 1538 1543 1546 1548 1555 1556 1559 1562 1565 1568 1570 1575 1577 1579 1580 1579 1579 1581 1581 1581 1582 1582
1503 1509 1516 1523 1528 1532 1537 1541 1547 1549 1553 1554 1557 1560 1564 1565 1571 1572 1576 1577 1576 1575 1577 1577 1578 1578 1579
1500 1504 1509 1516 1523 1528 1533 1538 1544 1545 1549 1551 1552 1555 1558 1561 1565 1569 1572 1573 1572 1572 1572 1572 1572 1573 1574
1500 1501 1508 1511 1517 1521 1528 1533 1538 1541 1542 1547 1548 1550 1554 1556 1559 1564 1565 1568 1567 1566 1566 1566 1567 1568 1568
1497 1498 1505 1506 1507 1516 1524 1531 1533 1537 1540 1540 1544 1544 1550 1551 1555 1557 1555 1561 1562 1559 1559 1559 1559 1561 1562
1493 1495 1500 1503 1504 1513 1516 1523 1528 1529 1533 1537 1535 1538 1544 1546 1549 1548 1550 1554 1553 1553 1553 1553 1553 1554 1555
1491 1493 1496 1501 1503 1507 1512 1517 1521 1523 1526 1526 1530 1532 1536 1539 1542 1542 1543 1545 1545 1547 1546 1547 1547 1547 1548
1492 1494 1493 1497 1502 1507 1510 1514 1517 1518 1518 1518 1523 1525 1530 1533 1535 1536 1536 1537 1538 1538 1539 1540 1540 1540 1539
1489 1491 1493 1495 1498 1501 1502 1509 1508 1509 1512 1513 1516 1520 1522 1523 1525 1527 1529 1530 1530 1530 1530 1531 1533 1532 1532
1483 1486 1489 1488 1492 1495 1498 1501 1501 1503 1505 1509 1511 1513 1513 1513 1516 1519 1520 1521 1521 1521 1522 1523 1525 1525 1524
1477 1481 1481 1483 1487 1489 1491 1493 1495 1497 1500 1502 1504 1505 1506 1507 1507 1510 1512 1514 1514 1514 1514 1515 1517 1518 1516
1472 1472 1473 1476 1481 1483 1486 1486 1489 1492 1495 1496 1495 1498 1498 1498 1498 1500 1503 1506 1505 1505 1506 1507 1508 1509 1510
1465 1465 1468 1470 1472 1474 1477 1479 1480 1484 1486 1488 1489 1490 1491 1490 1491 1492 1495 1496 1497 1497 1497 1498 1499 1500 1499
1458 1459 1462 1464 1465 1468 1470 1473 1474 1477 1480 1481 1483 1483 1483 1483 1485 1485 1485 1486 1489 1489 1489 1489 1489 1489 1488
1453 1455 1457 1458 1459 1462 1465 1467 1469 1470 1471 1473 1474 1475 1475 1476 1475 1476 1476 1477 1479 1480 1481 1479 1479 1479 1478
1449 1451 1452 1455 1456 1458 1459 1461 1462 1463 1463 1466 1466 1467 1467 1468 1468 1467 1468 1469 1470 1470 1470 1468 1467 1470 1469
1443 1444 1446 1448 1450 1451 1452 1454 1455 1456 1456 1458 1459 1460 1459 1457 1461 1462 1462 1462 1461 1460 1460 1459 1458 1459 1460
Wind_Speed
42 39 45 43 41 36 34 31 29 28 25 21 19 17 15 14 13 12 12 13 12 12 12 13 14 14 15
38 43 40 43 39 38 35 31 30 27 23 21 20 17 16 14 13 13 14 14 14 15 15 16 16 18 19
31 40 39 41 38 35 33 32 29 25 23 21 20 18 17 15 14 14 14 15 16 17 18 19 20 21 22
22 31 38 39 38 37 35 32 29 27 25 22 20 18 16 14 14 18 19 21 22 22 23 23 23 23 24
23 28 37 38 40 37 34 31 30 27 24 23 21 19 18 19 20 21 22 24 24 23 24 25 25 25 25
26 27 31 35 36 35 34 33 29 29 27 25 24 22 21 21 22 22 22 23 23 23 23 24 25 25 26
24 26 29 31 31 34 34 34 32 27 27 23 23 23 21 23 24 24 24 24 24 24 24 24 25 25 26
20 23 26 27 27 28 28 27 26 26 26 26 27 28 24 25 26 27 26 26 26 26 27 27 27 27 25
22 21 24 24 28 30 31 27 29 32 31 28 30 28 28 30 29 28 28 28 28 29 28 26 24 22 23
30 31 30 28 30 33 33 35 34 31 32 30 30 28 27 32 31 29 29 29 30 29 27 24 23 23 28
27 29 27 24 23 21 25 26 27 29 27 24 26 24 26 27 28 28 26 26 26 25 24 24 22 22 25
25 28 28 30 33 30 30 28 27 26 23 24 28 28 30 31 31 32 29 28 25 23 22 22 23 24 25
23 29 28 23 22 25 27 29 29 31 32 32 32 31 32 33 32 30 27 25 24 24 24 27 29 30 31
14 21 21 19 23 24 24 22 24 26 24 24 25 26 30 31 31 32 31 31 29 28 28 28 28 27 27
16 18 15 15 22 25 24 23 27 28 29 29 30 30 32 32 33 33 33 33 31 29 28 31 31 30 32
25 26 24 21 20 23 23 22 23 23 21 19 18 19 19 21 20 21 24 26 27 27 28 32 34 35 34
22 26 28 29 28 25 27 26 26 27 27 25 23 23 24 26 29 26 24 26 27 28 32 36 39 39 28
Wind_Direction
215 210 208 207 207 208 212 213 211 212 214 216 217 220 224 229 237 243 250 252 255 258 260 261 262 262 266
212 210 210 209 210 209 211 211 213 212 215 214 216 219 223 225 236 242 250 255 260 264 269 269 268 268 269
217 210 208 210 208 211 212 212 213 212 213 214 214 216 219 225 233 244 254 262 265 267 269 267 266 267 267
225 213 211 205 208 209 208 210 212 214 212 213 212 213 217 225 243 255 263 267 267 267 267 267 267 266 264
223 212 209 206 207 210 215 216 214 214 212 209 213 219 235 247 255 260 266 267 266 267 267 267 268 269 267
227 224 221 217 211 211 210 209 211 209 212 217 227 236 248 255 258 263 261 263 267 269 269 268 266 267 268
225 220 221 220 216 211 210 212 214 214 223 231 245 249 254 260 261 259 261 263 264 265 265 266 269 270 270
227 227 219 218 216 217 211 214 221 230 237 245 248 258 261 259 259 260 263 265 265 265 267 268 267 267 267
224 224 222 218 213 211 214 231 241 245 247 254 258 262 260 259 259 263 264 264 265 265 266 264 263 260 265
235 230 225 225 231 240 245 244 243 248 248 250 254 258 268 268 264 262 261 261 262 262 260 260 255 257 256
247 241 237 233 231 234 244 245 248 251 250 253 256 258 257 262 270 271 266 260 264 263 259 256 253 246 258
253 249 244 238 234 225 224 236 245 253 257 253 259 262 266 270 268 270 266 269 267 265 262 259 253 252 256
255 252 257 256 251 247 246 248 252 251 252 253 256 258 259 263 266 267 272 269 271 270 267 263 262 264 267
262 261 255 248 247 249 245 242 246 247 245 251 257 257 259 259 262 266 267 265 273 274 275 272 271 267 271
262 257 249 238 242 245 236 241 244 253 260 261 257 259 259 261 262 265 268 270 272 272 270 270 269 270 280
258 259 255 253 255 255 256 253 248 249 248 236 241 261 256 251 252 264 268 271 274 275 273 273 272 272 274
260 264 265 265 261 255 261 261 261 265 269 271 267 265 266 265 273 265 265 271 276 277 275 271 271 272 268